Regional Weather Roundup
Issued by NWS Charleston, SC

Current Version | Previous Version | Text Only | Print | Product List | Glossary Off
Versions: 1 2 3 4 5 6 7 8 9 10 11 12 13 14 15 16 17 18 19 20 21 22 23 24 25 26 27 28 29 30 31 32 33 34 35 36 37 38 39 40 41 42 43 44 45 46 47 48 49 50

000
ASUS42 KCHS 241527
RWRCHS

REGIONAL WEATHER ROUNDUP
NATIONAL WEATHER SERVICE CHARLESTON SC
1100 AM EDT MON JUL 24 2017

NOTE: "FAIR" INDICATES FEW OR NO CLOUDS BELOW 12,000 FEET WITH NO
SIGNIFICANT WEATHER AND/OR OBSTRUCTIONS TO VISIBILITY.

NOT ALL STATIONS ARE QUALITY CONTROLLED. USE DATA WITH CAUTION...
ESPECIALLY DEWPOINT OBSERVATIONS.

SCZ027-030-031-034>040-042>050-241600-
...SOUTHEAST SOUTH CAROLINA...

CITY           SKY/WX    TMP DP  RH WIND       PRES   REMARKS
N CHARLESTON   LGT RAIN  77  74  90 W10       30.00S FOG
WATERFRONT PRK   N/A     78  77  96 SW7       29.99R
JOHNS ISLAND   NOT AVBL
PINOPOLIS      NOT AVBL
MONCKS CORNER  FAIR      75  72  88 SW10      29.99F
SUMMERVILLE    FAIR      73  72  94 S5        30.00F
BEAUFORT MCAS  RAIN      77  77 100 CALM      30.01S FOG
BEAUFORT ARPT  LGT RAIN  77  75  94 CALM      30.01S
HILTON HEAD IS PTSUNNY   81  75  83 W9        30.02S
WALTERBORO     CLOUDY    73  72  94 E3        30.01S
ALLENDALE      NOT AVBL

...SOUTHERN MIDLANDS AND PEE DEE...

CITY           SKY/WX    TMP DP  RH WIND       PRES   REMARKS
GEORGETOWN     PTSUNNY   81  79  94 W9        30.00R
KINGSTREE      CLOUDY    79  73  83 SW7       29.98R
ORANGEBURG     CLOUDY    80  75  84 SW9       29.99R
BARNWELL       CLOUDY    82  77  83 SW9       29.98F HX  91
AIKEN          FAIR      82  75  78 SW8       30.01S
MANNING        CLOUDY    79  75  89 NW13G18   29.99R
COLUMBIA       CLOUDY    81  74  79 VRB5      29.97R
SUMTER         LGT RAIN  79  75  89 W6        29.96R
FLORENCE       CLOUDY    80  76  87 W9        29.98R
MYRTLE BEACH   MOSUNNY   82  75  78 SW12      29.97
N MYRTLE BEACH MOSUNNY   84  77  79 S13       29.96R HX  94

$$

GAZ063-065-086>088-099>101-113>116-118-119-134>141-150-241600-
...SOUTHEAST GEORGIA...

CITY           SKY/WX    TMP DP  RH WIND       PRES   REMARKS
SAVANNAH ARPT  CLOUDY    83  74  74 SW6       30.01F
HUNTER AAF     CLOUDY    84  76  78 W8        29.98F HX  92
FORT STEWART   MOSUNNY   84  73  70 W7        29.99S HX  91
STATESBORO     CLOUDY    82  77  83 S5        29.99F HX  91
SYLVANIA       CLOUDY    81  79  95 SW3       30.00F HX  90
CLAXTON        FAIR      87  77  73 SW6       30.00S HX  98

...CSRA...CENTRAL AND FAR SOUTHEAST GEORGIA...

CITY           SKY/WX    TMP DP  RH WIND       PRES   REMARKS
THOMSON        SUNNY     86  76  73 W5        30.02S HX  96
AUGUSTA-BUSH   PTSUNNY   86  77  74 S8        29.97R HX  97
AUGUSTA-DANIEL MOSUNNY   86  73  65 SW6       29.98R HX  93
SWAINSBORO     PTSUNNY   81  77  89 SW6       30.01S
VIDALIA        PTSUNNY   86  77  74 W8        30.01S HX  97
EASTMAN        PTSUNNY   87  66  49 SW7       30.02S
HAZLEHURST     FAIR      86  76  71 CALM      30.00S HX  97
ALMA           MOSUNNY   86  73  65 SW10      30.01S HX  93
WAYCROSS       PTSUNNY   89  80  73 W8        30.01F HX 106
JESUP          NOT AVBL
BAXLEY         FAIR      86  77  74 W6        30.01S HX  97
BRUNSWICK      MOSUNNY   88  77  70 SW13      30.03R HX 100
SAINT SIMONS   SUNNY     87  75  67 SW12G18   30.02R HX  96

$$

SCZ027-028-034-036>038-045-046-048>050-GAZ119-141-241600-
...LAKE AND SUPPLEMENTAL COASTAL OBSERVATIONS...

STATION/POSITION TIME  TEMP    WIND        PRES    WAVE   SWELL
                       AIR SEA DIR/SP/G            HT/PER HT/PER/DIR
                 (UTC) (F)     (DEG/KT/KT) (MB)    (FT/S) (FT/S/D)
WINYAH BAY       1445   82     260/  8     1015.0R
LAKE MURRAY      1450   79     270/  5/  6 1014.2R
ACE BASIN NERRS  1430   74     250/  2     1016.0S
FORT PULASKI     1500   81 85  270/  6/ 10 1016.5
SAPELO ISLAND    1500   85     250/  8     1016.0

$$

ANZ835-935-AMZ111-154-330-350-352-354-370-450-454-472-241600-
...C-MAN AND BUOY OBSERVATIONS...

STATION/POSITION TIME  TEMP    WIND        PRES    WAVE   SWELL
                       AIR SEA DIR/SP/G            HT/PER HT/PER/DIR
                 (UTC) (F)     (DEG/KT/KT) (MB)    (FT/S) (FT/S/D)
BUOY 41004       1510   81 83  250/ 19/ 23 1015.6
BUOY 41008       1450   80 81  230/ 12/ 14 1016.1R   3/ 5   2/ 70/10
FOLLY BEACH CMAN 1500   76     250/  8/ 10 1016.4S
CAPERS NEARSHORE 1508   78 84  270/ 16/ 21 1015.3R
FRIPP NEARSHORE  1508   81 83  270/ 12/ 16 1015.6F


STATION/POSITION TIME  TEMP    WIND        PRES    WAVE   SWELL
                       AIR SEA DIR/SP/G            HT/PER HT/PER/DIR
                 (UTC) (F)     (DEG/KT/KT) (MB)    (FT/S) (FT/S/D)
5E ST. MARYS GA  1500      78                N/A     2/10
FRYING PAN BUOY  1510   82 82  230/ 17/ 23 1015.0
BUOY 41025       1450   82 84  230/ 23/ 27 1012.8S   8/ 8   5/210/ 8
CAPE LOOKOUT NC  1500   83     230/ 11/ 14 1013.4F
BUOY 41002       1450   83 83  230/ 16/ 19 1018.3R   5/ 7   2/100/ 8
BUOY 41010       1510   84 85  210/ 10/ 12 1019.3
ST AUGUSTINE FL  1500   85 74  210/ 10/ 12 1018.0R


$$




USA.gov is the U.S. government's official web portal to all federal, state and local government web resources and services.